Wetterdaten: Mittwoch, 09.11.2011
Datum Zeit Temp. Auen Feucht Auen Luftdruck Regen Richtung Richtung Windben
09.11.2011 00:00 3,8 C 97 % 1089,0 hPa 0,0 mm W-SW 254 7,2 km/h (2 Bft)
09.11.2011 00:05 3,9 C 97 % 1089,1 hPa 0,0 mm SW 218 7,2 km/h (2 Bft)
09.11.2011 00:10 3,9 C 97 % 1089,0 hPa 0,0 mm S 186 6,1 km/h (2 Bft)
09.11.2011 00:15 3,8 C 97 % 1088,8 hPa 0,0 mm S-SW 208 6,1 km/h (2 Bft)
09.11.2011 00:20 3,8 C 97 % 1088,8 hPa 0,0 mm W-SW 237 6,1 km/h (2 Bft)
09.11.2011 00:25 3,7 C 96 % 1089,0 hPa 0,0 mm SW 229 3,6 km/h (1 Bft)
09.11.2011 00:30 3,7 C 96 % 1089,0 hPa 0,0 mm W-SW 238 3,6 km/h (1 Bft)
09.11.2011 00:35 3,7 C 96 % 1088,9 hPa 0,0 mm W 276 3,6 km/h (1 Bft)
09.11.2011 00:40 3,8 C 97 % 1088,8 hPa 0,0 mm W-NW 294 3,6 km/h (1 Bft)
09.11.2011 00:45 3,7 C 96 % 1089,0 hPa 0,0 mm W-SW 254 3,6 km/h (1 Bft)
09.11.2011 00:50 3,6 C 96 % 1089,2 hPa 0,0 mm W-SW 257 3,6 km/h (1 Bft)
09.11.2011 00:55 3,6 C 96 % 1088,9 hPa 0,0 mm W 264 2,5 km/h (1 Bft)
09.11.2011 01:00 3,4 C 96 % 1089,0 hPa 0,0 mm W 260 3,6 km/h (1 Bft)
09.11.2011 01:05 3,3 C 96 % 1089,1 hPa 0,0 mm W 260 3,6 km/h (1 Bft)
09.11.2011 01:10 3,2 C 96 % 1088,9 hPa 0,0 mm W 270 2,5 km/h (1 Bft)
09.11.2011 01:15 3,2 C 96 % 1088,9 hPa 0,0 mm W-SW 250 3,6 km/h (1 Bft)
09.11.2011 01:20 3,1 C 96 % 1089,0 hPa 0,0 mm W-SW 249 3,6 km/h (1 Bft)
09.11.2011 01:25 2,9 C 96 % 1089,1 hPa 0,0 mm NW 321 1,1 km/h (1 Bft)
09.11.2011 01:30 2,8 C 95 % 1089,4 hPa 0,0 mm NW 314 1,1 km/h (1 Bft)
09.11.2011 01:35 2,6 C 95 % 1089,3 hPa 0,0 mm NW 314 1,1 km/h (1 Bft)
09.11.2011 01:40 2,5 C 96 % 1089,4 hPa 0,0 mm NW 314 1,1 km/h (1 Bft)
09.11.2011 01:45 2,6 C 96 % 1089,2 hPa 0,0 mm NW 314 3,6 km/h (1 Bft)
09.11.2011 01:50 2,6 C 96 % 1089,4 hPa 0,0 mm NW 314 3,6 km/h (1 Bft)
09.11.2011 01:55 2,5 C 96 % 1089,4 hPa 0,0 mm NW 314 3,6 km/h (1 Bft)
09.11.2011 02:00 2,5 C 96 % 1089,4 hPa 0,0 mm NW 314 1,1 km/h (1 Bft)
09.11.2011 02:05 2,5 C 96 % 1089,4 hPa 0,0 mm NW 314 1,1 km/h (1 Bft)
09.11.2011 02:10 2,3 C 96 % 1089,6 hPa 0,0 mm NW 314 1,1 km/h (1 Bft)
09.11.2011 02:15 2,3 C 96 % 1089,8 hPa 0,0 mm NW 314 3,6 km/h (1 Bft)
09.11.2011 02:20 2,2 C 96 % 1089,5 hPa 0,0 mm NW 314 3,6 km/h (1 Bft)
09.11.2011 02:25 2,2 C 96 % 1089,8 hPa 0,0 mm NW 314 2,5 km/h (1 Bft)
09.11.2011 02:30 2,1 C 97 % 1089,8 hPa 0,0 mm NW 314 2,5 km/h (1 Bft)
09.11.2011 02:35 2,1 C 96 % 1089,7 hPa 0,0 mm NW 314 2,5 km/h (1 Bft)
09.11.2011 02:40 2,1 C 97 % 1089,7 hPa 0,0 mm NW 314 2,5 km/h (1 Bft)
09.11.2011 02:45 2,1 C 97 % 1089,8 hPa 0,0 mm NW 314 2,5 km/h (1 Bft)
09.11.2011 02:50 2,2 C 97 % 1089,5 hPa 0,0 mm NW 314 2,5 km/h (1 Bft)
09.11.2011 02:55 2,2 C 97 % 1089,6 hPa 0,0 mm NW 314 2,5 km/h (1 Bft)
09.11.2011 03:00 2,2 C 97 % 1089,6 hPa 0,0 mm NW 314 2,5 km/h (1 Bft)
09.11.2011 03:05 2,2 C 97 % 1089,6 hPa 0,0 mm NW 314 2,5 km/h (1 Bft)
09.11.2011 03:10 2,1 C 97 % 1089,8 hPa 0,0 mm NW 314 2,5 km/h (1 Bft)
09.11.2011 03:15 2,0 C 97 % 1089,6 hPa 0,0 mm NW 314 2,5 km/h (1 Bft)
09.11.2011 03:20 1,9 C 97 % 1089,5 hPa 0,0 mm NW 314 2,5 km/h (1 Bft)
09.11.2011 03:25 1,9 C 97 % 1089,6 hPa 0,0 mm NW 314 1,1 km/h (1 Bft)
09.11.2011 03:30 1,9 C 97 % 1089,6 hPa 0,0 mm NW 314 2,5 km/h (1 Bft)
09.11.2011 03:35 1,9 C 97 % 1089,6 hPa 0,0 mm NW 314 2,5 km/h (1 Bft)
09.11.2011 03:40 1,9 C 97 % 1089,6 hPa 0,0 mm NW 314 2,5 km/h (1 Bft)
09.11.2011 03:45 1,8 C 97 % 1089,8 hPa 0,0 mm NW 314 2,5 km/h (1 Bft)
09.11.2011 03:50 1,9 C 100 % 1089,8 hPa 0,0 mm NW 314 2,5 km/h (1 Bft)
09.11.2011 03:55 2,0 C 100 % 1089,8 hPa 0,0 mm NW 314 2,5 km/h (1 Bft)
09.11.2011 04:00 1,9 C 100 % 1089,6 hPa 0,0 mm NW 314 3,6 km/h (1 Bft)
09.11.2011 04:05 1,9 C 100 % 1089,6 hPa 0,0 mm S-SW 202 6,1 km/h (2 Bft)
09.11.2011 04:10 1,7 C 100 % 1089,7 hPa 0,0 mm S 183 6,1 km/h (2 Bft)
09.11.2011 04:15 1,7 C 100 % 1089,7 hPa 0,0 mm S 183 6,1 km/h (2 Bft)
09.11.2011 04:20 1,9 C 100 % 1089,7 hPa 0,0 mm W 276 3,6 km/h (1 Bft)
09.11.2011 04:25 1,8 C 100 % 1089,7 hPa 0,0 mm W-SW 254 3,6 km/h (1 Bft)
09.11.2011 04:30 1,8 C 100 % 1089,7 hPa 0,0 mm SW 234 2,5 km/h (1 Bft)
09.11.2011 04:35 1,9 C 100 % 1089,9 hPa 0,0 mm W 270 2,5 km/h (1 Bft)
09.11.2011 04:40 1,7 C 100 % 1089,8 hPa 0,0 mm NW 310 2,5 km/h (1 Bft)
09.11.2011 04:45 1,8 C 100 % 1090,0 hPa 0,0 mm NW 314 2,5 km/h (1 Bft)
09.11.2011 04:50 1,8 C 100 % 1090,2 hPa 0,0 mm NW 314 2,5 km/h (1 Bft)
09.11.2011 04:55 1,7 C 100 % 1090,1 hPa 0,0 mm NW 314 2,5 km/h (1 Bft)
09.11.2011 05:00 1,7 C 100 % 1090,2 hPa 0,0 mm NW 314 1,1 km/h (1 Bft)
09.11.2011 05:05 1,7 C 100 % 1090,2 hPa 0,0 mm NW 314 3,6 km/h (1 Bft)
09.11.2011 05:10 1,6 C 100 % 1090,2 hPa 0,0 mm NW 305 3,6 km/h (1 Bft)
09.11.2011 05:15 1,7 C 99 % 1090,0 hPa 0,0 mm W 278 2,5 km/h (1 Bft)
09.11.2011 05:20 1,9 C 99 % 1090,1 hPa 0,0 mm W-SW 258 3,6 km/h (1 Bft)
09.11.2011 05:25 1,6 C 100 % 1090,4 hPa 0,0 mm S-SW 208 3,6 km/h (1 Bft)
09.11.2011 05:30 1,5 C 99 % 1090,4 hPa 0,0 mm S 186 3,6 km/h (1 Bft)
09.11.2011 05:35 1,5 C 99 % 1090,4 hPa 0,0 mm W 264 5,0 km/h (1 Bft)
09.11.2011 05:40 1,6 C 99 % 1090,6 hPa 0,0 mm W-SW 244 6,1 km/h (2 Bft)
09.11.2011 05:45 1,5 C 99 % 1090,4 hPa 0,0 mm SW 225 6,1 km/h (2 Bft)
09.11.2011 05:50 1,4 C 99 % 1090,5 hPa 0,0 mm SW 225 3,6 km/h (1 Bft)
09.11.2011 05:55 1,3 C 99 % 1090,5 hPa 0,0 mm SW 225 1,1 km/h (1 Bft)
09.11.2011 06:00 1,3 C 99 % 1090,7 hPa 0,0 mm W 260 2,5 km/h (1 Bft)
09.11.2011 06:05 1,3 C 99 % 1090,6 hPa 0,0 mm W 270 2,5 km/h (1 Bft)
09.11.2011 06:10 1,4 C 99 % 1090,7 hPa 0,0 mm W 270 2,5 km/h (1 Bft)
09.11.2011 06:15 1,4 C 99 % 1090,8 hPa 0,0 mm W 270 1,1 km/h (1 Bft)
09.11.2011 06:20 1,4 C 99 % 1090,8 hPa 0,0 mm W 270 1,1 km/h (1 Bft)
09.11.2011 06:25 1,1 C 100 % 1090,9 hPa 0,0 mm W 270 1,1 km/h (1 Bft)
09.11.2011 06:30 0,9 C 100 % 1091,0 hPa 0,0 mm W 270 1,1 km/h (1 Bft)
09.11.2011 06:35 1,0 C 99 % 1091,0 hPa 0,0 mm W 270 1,1 km/h (1 Bft)
09.11.2011 06:40 1,2 C 99 % 1091,1 hPa 0,0 mm NW 307 3,6 km/h (1 Bft)
09.11.2011 06:45 1,1 C 99 % 1091,1 hPa 0,0 mm N 358 3,6 km/h (1 Bft)
09.11.2011 06:50 1,1 C 99 % 1091,1 hPa 0,0 mm N 1 2,5 km/h (1 Bft)
09.11.2011 06:55 1,4 C 99 % 1091,3 hPa 0,0 mm N 7 3,6 km/h (1 Bft)
09.11.2011 07:00 1,5 C 99 % 1091,3 hPa 0,0 mm N 10 3,6 km/h (1 Bft)
09.11.2011 07:05 1,6 C 99 % 1091,3 hPa 0,0 mm N 1 2,5 km/h (1 Bft)
09.11.2011 07:10 2,2 C 99 % 1091,0 hPa 0,0 mm N 1 1,1 km/h (1 Bft)
09.11.2011 07:15 2,8 C 99 % 1090,9 hPa 0,0 mm S 169 3,6 km/h (1 Bft)
09.11.2011 07:20 3,3 C 99 % 1090,7 hPa 0,0 mm S 171 3,6 km/h (1 Bft)
09.11.2011 07:25 3,4 C 99 % 1090,7 hPa 0,0 mm S 181 3,6 km/h (1 Bft)
09.11.2011 07:30 3,4 C 99 % 1090,9 hPa 0,0 mm S 181 1,1 km/h (1 Bft)
09.11.2011 07:35 3,4 C 99 % 1090,8 hPa 0,0 mm N 0 0,0 km/h (0 Bft)
09.11.2011 07:40 3,6 C 99 % 1090,7 hPa 0,0 mm N 0 0,0 km/h (0 Bft)
09.11.2011 07:45 4,0 C 99 % 1090,9 hPa 0,0 mm N 0 0,0 km/h (0 Bft)
09.11.2011 07:50 4,0 C 99 % 1090,9 hPa 0,0 mm N 0 0,0 km/h (0 Bft)
09.11.2011 07:55 4,0 C 99 % 1091,1 hPa 0,0 mm N 0 0,0 km/h (0 Bft)
09.11.2011 08:00 4,1 C 99 % 1090,8 hPa 0,0 mm N 0 0,0 km/h (0 Bft)
09.11.2011 08:05 4,1 C 99 % 1090,8 hPa 0,0 mm N 0 0,0 km/h (0 Bft)
09.11.2011 08:10 4,2 C 99 % 1090,9 hPa 0,0 mm N 0 0,0 km/h (0 Bft)
09.11.2011 08:15 4,3 C 99 % 1090,9 hPa 0,0 mm N 0 0,0 km/h (0 Bft)
09.11.2011 08:20 4,4 C 99 % 1091,0 hPa 0,0 mm W 270 1,1 km/h (1 Bft)
09.11.2011 08:25 4,5 C 99 % 1090,8 hPa 0,0 mm W 270 1,1 km/h (1 Bft)
09.11.2011 08:30 4,7 C 99 % 1090,9 hPa 0,0 mm W 270 3,6 km/h (1 Bft)
09.11.2011 08:35 4,8 C 99 % 1090,8 hPa 0,0 mm W 270 3,6 km/h (1 Bft)
09.11.2011 08:40 4,9 C 99 % 1090,9 hPa 0,0 mm W 270 2,5 km/h (1 Bft)
09.11.2011 08:45 4,9 C 99 % 1091,1 hPa 0,0 mm W 270 2,5 km/h (1 Bft)
09.11.2011 08:50 4,8 C 99 % 1090,9 hPa 0,0 mm W 270 2,5 km/h (1 Bft)
09.11.2011 08:55 4,8 C 99 % 1090,8 hPa 0,0 mm W 270 3,6 km/h (1 Bft)
09.11.2011 09:00 5,1 C 99 % 1090,8 hPa 0,0 mm W 270 3,6 km/h (1 Bft)
09.11.2011 09:05 5,3 C 99 % 1090,7 hPa 0,0 mm W 270 2,5 km/h (1 Bft)
09.11.2011 09:10 5,9 C 99 % 1090,7 hPa 0,0 mm W-SW 249 1,1 km/h (1 Bft)
09.11.2011 09:15 6,3 C 99 % 1090,4 hPa 0,0 mm S 181 1,1 km/h (1 Bft)
09.11.2011 09:20 6,8 C 99 % 1090,4 hPa 0,0 mm S 181 1,1 km/h (1 Bft)
09.11.2011 09:25 7,2 C 99 % 1090,4 hPa 0,0 mm N 0 0,0 km/h (0 Bft)
09.11.2011 09:30 7,5 C 99 % 1090,3 hPa 0,0 mm N 0 0,0 km/h (0 Bft)
09.11.2011 09:35 8,0 C 99 % 1089,8 hPa 0,0 mm N 0 0,0 km/h (0 Bft)
09.11.2011 09:40 8,5 C 99 % 1089,8 hPa 0,0 mm N 0 0,0 km/h (0 Bft)
09.11.2011 09:45 8,6 C 96 % 1089,9 hPa 0,0 mm O 90 7,2 km/h (2 Bft)
09.11.2011 09:50 8,6 C 95 % 1090,0 hPa 0,0 mm SO 125 9,7 km/h (2 Bft)
09.11.2011 09:55 8,5 C 93 % 1089,9 hPa 0,0 mm SO 128 9,7 km/h (2 Bft)
09.11.2011 10:00 8,6 C 95 % 1089,9 hPa 0,0 mm O-SO 117 9,7 km/h (2 Bft)
09.11.2011 10:05 8,6 C 94 % 1089,9 hPa 0,0 mm SO 124 9,7 km/h (2 Bft)
09.11.2011 10:10 8,7 C 94 % 1089,9 hPa 0,0 mm SO 133 9,7 km/h (2 Bft)
09.11.2011 10:15 8,7 C 94 % 1089,9 hPa 0,0 mm O-SO 119 11,2 km/h (2 Bft)
09.11.2011 10:20 8,9 C 94 % 1089,7 hPa 0,0 mm O-SO 106 11,2 km/h (2 Bft)
09.11.2011 10:25 9,4 C 92 % 1089,5 hPa 0,0 mm O-SO 111 9,7 km/h (2 Bft)
09.11.2011 10:30 9,8 C 91 % 1089,4 hPa 0,0 mm SO 124 7,2 km/h (2 Bft)
09.11.2011 10:35 10,0 C 90 % 1089,6 hPa 0,0 mm SO 126 8,6 km/h (2 Bft)
09.11.2011 10:40 10,1 C 89 % 1089,5 hPa 0,0 mm O-SO 120 9,7 km/h (2 Bft)
09.11.2011 10:45 10,2 C 89 % 1089,6 hPa 0,0 mm SO 135 9,7 km/h (2 Bft)
09.11.2011 10:50 10,2 C 88 % 1089,6 hPa 0,0 mm SO 143 12,2 km/h (2 Bft)
09.11.2011 10:55 10,3 C 89 % 1089,6 hPa 0,0 mm O-SO 117 12,2 km/h (2 Bft)
09.11.2011 11:00 10,4 C 89 % 1089,3 hPa 0,0 mm O-SO 111 12,2 km/h (2 Bft)
09.11.2011 11:05 10,5 C 90 % 1089,3 hPa 0,0 mm SO 128 11,2 km/h (2 Bft)
09.11.2011 11:10 10,8 C 88 % 1089,4 hPa 0,0 mm SO 133 9,7 km/h (2 Bft)
09.11.2011 11:15 10,9 C 85 % 1089,3 hPa 0,0 mm O-SO 122 9,7 km/h (2 Bft)
09.11.2011 11:20 11,0 C 86 % 1089,1 hPa 0,0 mm O-SO 120 11,2 km/h (2 Bft)
09.11.2011 11:25 10,9 C 85 % 1089,3 hPa 0,0 mm O-SO 121 11,2 km/h (2 Bft)
09.11.2011 11:30 10,9 C 84 % 1089,0 hPa 0,0 mm O-SO 121 12,2 km/h (2 Bft)
09.11.2011 11:35 11,0 C 84 % 1089,2 hPa 0,0 mm SO 131 12,2 km/h (2 Bft)
09.11.2011 11:40 11,2 C 82 % 1088,9 hPa 0,0 mm SO 132 12,2 km/h (2 Bft)
09.11.2011 11:45 11,4 C 82 % 1088,8 hPa 0,0 mm SO 127 12,2 km/h (2 Bft)
09.11.2011 11:50 11,6 C 84 % 1088,9 hPa 0,0 mm SO 124 11,2 km/h (2 Bft)
09.11.2011 11:55 11,9 C 81 % 1088,8 hPa 0,0 mm SO 131 9,7 km/h (2 Bft)
09.11.2011 12:00 12,1 C 81 % 1088,5 hPa 0,0 mm SO 138 9,7 km/h (2 Bft)
09.11.2011 12:05 12,1 C 80 % 1088,6 hPa 0,0 mm SO 137 9,7 km/h (2 Bft)
09.11.2011 12:10 12,4 C 78 % 1088,5 hPa 0,0 mm SO 136 9,7 km/h (2 Bft)
09.11.2011 12:15 12,4 C 77 % 1088,5 hPa 0,0 mm SO 131 11,2 km/h (2 Bft)
09.11.2011 12:20 12,3 C 78 % 1088,3 hPa 0,0 mm O-SO 116 12,2 km/h (2 Bft)
09.11.2011 12:25 12,2 C 79 % 1088,5 hPa 0,0 mm O-SO 118 12,2 km/h (2 Bft)
09.11.2011 12:30 12,3 C 79 % 1088,2 hPa 0,0 mm SO 129 11,2 km/h (2 Bft)
09.11.2011 12:35 12,3 C 82 % 1088,2 hPa 0,0 mm SO 134 11,2 km/h (2 Bft)
09.11.2011 12:40 12,4 C 82 % 1088,1 hPa 0,0 mm SO 128 12,2 km/h (2 Bft)
09.11.2011 12:45 12,5 C 79 % 1088,2 hPa 0,0 mm O-SO 118 12,2 km/h (2 Bft)
09.11.2011 12:50 12,4 C 79 % 1088,0 hPa 0,0 mm O-SO 119 13,3 km/h (3 Bft)
09.11.2011 12:55 12,3 C 80 % 1088,0 hPa 0,0 mm O-SO 121 13,3 km/h (3 Bft)
09.11.2011 13:00 12,2 C 79 % 1088,0 hPa 0,0 mm SO 125 13,3 km/h (3 Bft)
09.11.2011 13:05 12,3 C 78 % 1088,1 hPa 0,0 mm SO 132 12,2 km/h (2 Bft)
09.11.2011 13:10 12,0 C 80 % 1088,1 hPa 0,0 mm SO 135 12,2 km/h (2 Bft)
09.11.2011 13:15 11,7 C 83 % 1088,3 hPa 0,0 mm SO 132 12,2 km/h (2 Bft)
09.11.2011 13:20 11,6 C 84 % 1088,3 hPa 0,0 mm SO 134 12,2 km/h (2 Bft)
09.11.2011 13:25 11,6 C 83 % 1088,2 hPa 0,0 mm SO 146 11,2 km/h (2 Bft)
09.11.2011 13:30 11,6 C 81 % 1088,2 hPa 0,0 mm SO 142 11,2 km/h (2 Bft)
09.11.2011 13:35 11,6 C 82 % 1088,2 hPa 0,0 mm SO 130 9,7 km/h (2 Bft)
09.11.2011 13:40 11,7 C 84 % 1088,3 hPa 0,0 mm SO 131 8,6 km/h (2 Bft)
09.11.2011 13:45 11,6 C 83 % 1088,2 hPa 0,0 mm O-SO 110 7,2 km/h (2 Bft)
09.11.2011 13:50 11,6 C 82 % 1088,2 hPa 0,0 mm O 96 7,2 km/h (2 Bft)
09.11.2011 13:55 11,5 C 83 % 1088,1 hPa 0,0 mm O 91 7,2 km/h (2 Bft)
09.11.2011 14:00 11,4 C 85 % 1088,4 hPa 0,0 mm O-NO 78 7,2 km/h (2 Bft)
09.11.2011 14:05 11,4 C 85 % 1088,4 hPa 0,0 mm O-NO 60 8,6 km/h (2 Bft)
09.11.2011 14:10 11,2 C 86 % 1088,5 hPa 0,0 mm O-NO 61 12,2 km/h (2 Bft)
09.11.2011 14:15 10,7 C 85 % 1088,7 hPa 0,0 mm O-SO 115 13,3 km/h (3 Bft)
09.11.2011 14:20 10,3 C 87 % 1088,7 hPa 0,0 mm SO 129 13,3 km/h (3 Bft)
09.11.2011 14:25 10,0 C 88 % 1088,7 hPa 0,0 mm O-SO 118 11,2 km/h (2 Bft)
09.11.2011 14:30 9,8 C 89 % 1088,9 hPa 0,0 mm O-SO 119 12,2 km/h (2 Bft)
09.11.2011 14:35 9,5 C 90 % 1088,9 hPa 0,0 mm O-SO 122 12,2 km/h (2 Bft)
09.11.2011 14:40 9,3 C 91 % 1089,0 hPa 0,0 mm O-SO 117 13,3 km/h (3 Bft)
09.11.2011 14:45 9,1 C 91 % 1089,4 hPa 0,0 mm O-SO 115 13,3 km/h (3 Bft)
09.11.2011 14:50 8,9 C 91 % 1089,2 hPa 0,0 mm O-SO 112 13,3 km/h (3 Bft)
09.11.2011 14:55 8,8 C 92 % 1089,4 hPa 0,0 mm O-SO 108 13,3 km/h (3 Bft)
09.11.2011 15:00 8,7 C 92 % 1089,3 hPa 0,0 mm O 99 13,3 km/h (3 Bft)
09.11.2011 15:05 8,6 C 92 % 1089,5 hPa 0,0 mm O-SO 119 13,3 km/h (3 Bft)
09.11.2011 15:10 8,2 C 94 % 1089,5 hPa 0,0 mm SO 134 13,3 km/h (3 Bft)
09.11.2011 15:15 8,0 C 94 % 1089,4 hPa 0,0 mm SO 131 13,3 km/h (3 Bft)
09.11.2011 15:20 7,8 C 95 % 1089,8 hPa 0,0 mm O-SO 123 11,2 km/h (2 Bft)
09.11.2011 15:25 7,6 C 96 % 1089,6 hPa 0,0 mm SO 124 11,2 km/h (2 Bft)
09.11.2011 15:30 7,5 C 96 % 1089,6 hPa 0,0 mm SO 128 11,2 km/h (2 Bft)
09.11.2011 15:35 7,4 C 97 % 1089,8 hPa 0,0 mm O-SO 123 11,2 km/h (2 Bft)
09.11.2011 15:40 7,2 C 97 % 1089,8 hPa 0,0 mm O-SO 116 9,7 km/h (2 Bft)
09.11.2011 15:45 7,1 C 100 % 1089,9 hPa 0,0 mm O-SO 104 8,6 km/h (2 Bft)
09.11.2011 15:50 7,0 C 100 % 1089,9 hPa 0,0 mm O-SO 112 8,6 km/h (2 Bft)
09.11.2011 15:55 6,9 C 100 % 1090,1 hPa 0,0 mm O-SO 108 8,6 km/h (2 Bft)
09.11.2011 16:00 6,7 C 99 % 1090,2 hPa 0,0 mm O-SO 106 8,6 km/h (2 Bft)
09.11.2011 16:05 6,7 C 99 % 1090,3 hPa 0,0 mm O-SO 107 8,6 km/h (2 Bft)
09.11.2011 16:10 6,3 C 99 % 1090,3 hPa 0,0 mm O 96 7,2 km/h (2 Bft)
09.11.2011 16:15 6,2 C 99 % 1090,4 hPa 0,0 mm O-SO 107 7,2 km/h (2 Bft)
09.11.2011 16:20 6,1 C 99 % 1090,5 hPa 0,0 mm SO 126 7,2 km/h (2 Bft)
09.11.2011 16:25 6,0 C 99 % 1090,7 hPa 0,0 mm SO 131 7,2 km/h (2 Bft)
09.11.2011 16:30 5,8 C 99 % 1090,6 hPa 0,0 mm O-SO 119 7,2 km/h (2 Bft)
09.11.2011 16:35 5,7 C 99 % 1090,9 hPa 0,0 mm O-SO 116 7,2 km/h (2 Bft)
09.11.2011 16:40 5,6 C 99 % 1090,8 hPa 0,0 mm SO 134 7,2 km/h (2 Bft)
09.11.2011 16:45 5,5 C 99 % 1091,0 hPa 0,0 mm S-SO 148 6,1 km/h (2 Bft)
09.11.2011 16:50 5,4 C 99 % 1091,0 hPa 0,0 mm S-SO 151 6,1 km/h (2 Bft)
09.11.2011 16:55 5,4 C 99 % 1091,1 hPa 0,0 mm SO 144 6,1 km/h (2 Bft)
09.11.2011 17:00 5,5 C 99 % 1091,0 hPa 0,0 mm SO 142 5,0 km/h (1 Bft)
09.11.2011 17:05 5,5 C 99 % 1091,1 hPa 0,0 mm SO 139 5,0 km/h (1 Bft)
09.11.2011 17:10 5,7 C 99 % 1091,2 hPa 0,0 mm SO 138 6,1 km/h (2 Bft)
09.11.2011 17:15 5,8 C 99 % 1091,3 hPa 0,0 mm SO 130 6,1 km/h (2 Bft)
09.11.2011 17:20 5,9 C 99 % 1091,2 hPa 0,0 mm O-SO 119 7,2 km/h (2 Bft)
09.11.2011 17:25 5,9 C 99 % 1091,4 hPa 0,0 mm O-SO 112 8,6 km/h (2 Bft)
09.11.2011 17:30 6,0 C 99 % 1091,4 hPa 0,0 mm O 96 9,7 km/h (2 Bft)
09.11.2011 17:35 5,9 C 99 % 1091,6 hPa 0,0 mm O 94 9,7 km/h (2 Bft)
09.11.2011 17:40 5,9 C 99 % 1091,2 hPa 0,0 mm O-SO 120 9,7 km/h (2 Bft)
09.11.2011 17:45 5,8 C 99 % 1091,3 hPa 0,0 mm S-SO 148 9,7 km/h (2 Bft)
09.11.2011 17:50 5,8 C 99 % 1091,6 hPa 0,0 mm SO 142 9,7 km/h (2 Bft)
09.11.2011 17:55 5,9 C 99 % 1091,6 hPa 0,0 mm SO 132 9,7 km/h (2 Bft)
09.11.2011 18:00 5,9 C 99 % 1091,4 hPa 0,0 mm O-SO 108 7,2 km/h (2 Bft)
09.11.2011 18:05 5,9 C 99 % 1091,4 hPa 0,0 mm O-SO 112 7,2 km/h (2 Bft)
09.11.2011 18:10 6,0 C 99 % 1091,5 hPa 0,0 mm O-SO 122 7,2 km/h (2 Bft)
09.11.2011 18:15 6,0 C 99 % 1091,6 hPa 0,0 mm O-SO 106 8,6 km/h (2 Bft)
09.11.2011 18:20 6,0 C 99 % 1091,3 hPa 0,0 mm O 84 8,6 km/h (2 Bft)
09.11.2011 18:25 5,9 C 99 % 1091,6 hPa 0,0 mm O 82 8,6 km/h (2 Bft)
09.11.2011 18:30 5,9 C 99 % 1091,6 hPa 0,0 mm O 99 7,2 km/h (2 Bft)
09.11.2011 18:35 5,9 C 99 % 1091,6 hPa 0,0 mm O-SO 104 6,1 km/h (2 Bft)
09.11.2011 18:40 5,9 C 99 % 1091,7 hPa 0,0 mm O-SO 115 8,6 km/h (2 Bft)
09.11.2011 18:45 5,9 C 99 % 1091,7 hPa 0,0 mm O-SO 102 9,7 km/h (2 Bft)
09.11.2011 18:50 5,9 C 99 % 1091,8 hPa 0,0 mm O 82 9,7 km/h (2 Bft)
09.11.2011 18:55 5,9 C 99 % 1091,9 hPa 0,0 mm O 95 7,2 km/h (2 Bft)
09.11.2011 19:00 5,9 C 99 % 1091,7 hPa 0,0 mm O 91 7,2 km/h (2 Bft)
09.11.2011 19:05 5,9 C 99 % 1091,8 hPa 0,0 mm N-NO 32 9,7 km/h (2 Bft)
09.11.2011 19:10 5,8 C 99 % 1091,8 hPa 0,0 mm N 7 9,7 km/h (2 Bft)
09.11.2011 19:15 5,8 C 99 % 1091,7 hPa 0,0 mm N-NO 28 9,7 km/h (2 Bft)
09.11.2011 19:20 5,8 C 99 % 1092,0 hPa 0,0 mm O 91 7,2 km/h (2 Bft)
09.11.2011 19:25 5,8 C 99 % 1091,7 hPa 0,0 mm O-SO 121 6,1 km/h (2 Bft)
09.11.2011 19:30 5,8 C 99 % 1091,7 hPa 0,0 mm SO 131 6,1 km/h (2 Bft)
09.11.2011 19:35 5,8 C 99 % 1091,8 hPa 0,0 mm O-SO 116 6,1 km/h (2 Bft)
09.11.2011 19:40 5,7 C 99 % 1091,8 hPa 0,0 mm O 88 6,1 km/h (2 Bft)
09.11.2011 19:45 5,7 C 99 % 1091,6 hPa 0,0 mm NO 41 5,0 km/h (1 Bft)
09.11.2011 19:50 5,6 C 99 % 1091,7 hPa 0,0 mm N-NO 13 3,6 km/h (1 Bft)
09.11.2011 19:55 5,6 C 99 % 1091,7 hPa 0,0 mm N 1 3,6 km/h (1 Bft)
09.11.2011 20:00 5,6 C 99 % 1091,7 hPa 0,0 mm NO 34 5,0 km/h (1 Bft)
09.11.2011 20:05 5,6 C 99 % 1091,7 hPa 0,0 mm O-SO 117 5,0 km/h (1 Bft)
09.11.2011 20:10 5,6 C 99 % 1091,8 hPa 0,0 mm SO 135 3,6 km/h (1 Bft)
09.11.2011 20:15 5,5 C 99 % 1091,7 hPa 0,0 mm SO 135 3,6 km/h (1 Bft)
09.11.2011 20:20 5,5 C 99 % 1091,6 hPa 0,0 mm SO 135 2,5 km/h (1 Bft)
09.11.2011 20:25 5,4 C 99 % 1091,6 hPa 0,0 mm N 0 0,0 km/h (0 Bft)
09.11.2011 20:30 5,4 C 99 % 1091,6 hPa 0,0 mm N 0 0,0 km/h (0 Bft)
09.11.2011 20:35 5,3 C 99 % 1091,5 hPa 0,0 mm N 0 0,0 km/h (0 Bft)
09.11.2011 20:40 5,3 C 99 % 1091,7 hPa 0,0 mm N 0 0,0 km/h (0 Bft)
09.11.2011 20:45 5,3 C 99 % 1091,6 hPa 0,0 mm SO 135 3,6 km/h (1 Bft)
09.11.2011 20:50 5,2 C 99 % 1091,7 hPa 0,0 mm SO 135 3,6 km/h (1 Bft)
09.11.2011 20:55 5,2 C 99 % 1091,6 hPa 0,0 mm SO 135 1,1 km/h (1 Bft)
09.11.2011 21:00 5,2 C 99 % 1091,7 hPa 0,0 mm SO 135 1,1 km/h (1 Bft)
09.11.2011 21:05 5,2 C 99 % 1091,9 hPa 0,0 mm N 0 0,0 km/h (0 Bft)
09.11.2011 21:10 5,1 C 99 % 1092,0 hPa 0,0 mm N 0 0,0 km/h (0 Bft)
09.11.2011 21:15 5,1 C 99 % 1092,0 hPa 0,0 mm SO 126 6,1 km/h (2 Bft)
09.11.2011 21:20 5,2 C 99 % 1091,9 hPa 0,0 mm O-SO 112 6,1 km/h (2 Bft)
09.11.2011 21:25 5,2 C 99 % 1092,3 hPa 0,0 mm O 98 6,1 km/h (2 Bft)
09.11.2011 21:30 5,2 C 99 % 1092,2 hPa 0,0 mm O 90 7,2 km/h (2 Bft)
09.11.2011 21:35 5,1 C 99 % 1092,2 hPa 0,0 mm O-SO 108 9,7 km/h (2 Bft)
09.11.2011 21:40 5,1 C 99 % 1092,4 hPa 0,0 mm O-SO 120 9,7 km/h (2 Bft)
09.11.2011 21:45 5,1 C 99 % 1092,3 hPa 0,0 mm O-SO 122 11,2 km/h (2 Bft)
09.11.2011 21:50 5,1 C 99 % 1092,5 hPa 0,0 mm SO 130 13,3 km/h (3 Bft)
09.11.2011 21:55 5,1 C 99 % 1092,5 hPa 0,0 mm SO 130 13,3 km/h (3 Bft)
09.11.2011 22:00 5,1 C 99 % 1092,5 hPa 0,0 mm SO 129 8,6 km/h (2 Bft)
09.11.2011 22:05 5,1 C 99 % 1092,2 hPa 0,0 mm SO 129 7,2 km/h (2 Bft)
09.11.2011 22:10 5,1 C 99 % 1092,1 hPa 0,0 mm SO 133 5,0 km/h (1 Bft)
09.11.2011 22:15 5,1 C 99 % 1092,3 hPa 0,0 mm SO 135 3,6 km/h (1 Bft)
09.11.2011 22:20 5,1 C 99 % 1092,1 hPa 0,0 mm SO 135 3,6 km/h (1 Bft)
09.11.2011 22:25 5,2 C 99 % 1092,2 hPa 0,0 mm N 0 0,0 km/h (0 Bft)
09.11.2011 22:30 5,2 C 99 % 1092,2 hPa 0,0 mm SO 135 5,0 km/h (1 Bft)
09.11.2011 22:35 5,3 C 99 % 1092,1 hPa 0,0 mm SO 135 5,0 km/h (1 Bft)
09.11.2011 22:40 5,2 C 99 % 1091,9 hPa 0,0 mm S-SO 158 5,0 km/h (1 Bft)
09.11.2011 22:45 5,2 C 99 % 1091,8 hPa 0,0 mm S 176 5,0 km/h (1 Bft)
09.11.2011 22:50 5,2 C 99 % 1091,7 hPa 0,0 mm S 181 3,6 km/h (1 Bft)
09.11.2011 22:55 5,1 C 99 % 1091,9 hPa 0,0 mm S 181 3,6 km/h (1 Bft)
09.11.2011 23:00 5,1 C 99 % 1092,0 hPa 0,0 mm S 170 3,6 km/h (1 Bft)
09.11.2011 23:05 5,1 C 99 % 1092,0 hPa 0,0 mm SO 141 3,6 km/h (1 Bft)
09.11.2011 23:10 5,2 C 99 % 1091,8 hPa 0,0 mm S-SO 147 5,0 km/h (1 Bft)
09.11.2011 23:15 5,1 C 99 % 1092,0 hPa 0,0 mm S-SO 167 5,0 km/h (1 Bft)
09.11.2011 23:20 5,1 C 99 % 1092,0 hPa 0,0 mm S-SO 165 6,1 km/h (2 Bft)
09.11.2011 23:25 5,1 C 99 % 1091,8 hPa 0,0 mm SO 135 6,1 km/h (2 Bft)
09.11.2011 23:30 5,1 C 99 % 1091,8 hPa 0,0 mm O-SO 119 6,1 km/h (2 Bft)
09.11.2011 23:35 5,1 C 99 % 1091,8 hPa 0,0 mm SO 127 6,1 km/h (2 Bft)
09.11.2011 23:40 5,1 C 99 % 1091,5 hPa 0,0 mm SO 139 6,1 km/h (2 Bft)
09.11.2011 23:45 5,0 C 99 % 1091,8 hPa 0,0 mm SO 137 7,2 km/h (2 Bft)
09.11.2011 23:50 5,0 C 99 % 1091,9 hPa 0,0 mm SO 135 7,2 km/h (2 Bft)
09.11.2011 23:55 5,0 C 99 % 1091,7 hPa 0,0 mm SO 142 5,0 km/h (1 Bft)
_ Min-Zeit 06:30 12:15 12:50 - - - 07:35
Minimum _ 0,9 C 77 % 1088,0 hPa - - - 0,0 km/h (0 Bft)
_ Max-Zeit 12:45 03:50 21:50 00:00 - - 12:50
Maximum _ 12,5 C 100 % 1092,5 hPa 0,0 mm - - 13,3 km/h
O-SO (3 Bft)
Durchschnitt _ 5,7 C 96 % 1090,3 hPa #0,0 mm SO - 6,0 km/h (2 Bft)